SCP
0 0 -0 0 -0 -0 0 -0 -0 -0 -0 -0 0 0 -0 -0 0 0 0 0 0 0 0 0 0 0 0 0 0 0 0 -0 0 -0 0 -0 -0 0 -0 -0 -0 -0 -0
0 -0 0 -0 0 0 -0 -0 0 0 0 -0 -0 -0 0 0 0 0 0 0 0 0 0 0 0 0 0 0 0 0 0 0 0 0 -0 -0 -0 -0 -0 0 -0 0 -0
0 -0 -0 0 0 0 -0 0 0 0 -0 -0 -0 0 -0 -0 0 0 0 0 -0 0 0 0 0 0 -0 0 0 0 0 0 0 0 0 0 0 0 0 -0 -0 0 0
-0 -0 -0 0 0 -0 -0 -0 -0 0 0 -0 -0 -0 -0 0 0 0 0 0 0 0 0 0 -0 0 0 0 0 0 0 0 0 0 0 0 0 0 0 0 0 0 0
-0 -0 0 0 0 -0 0 0 -0 0 -0 0 -0 -0 0 0 0 0 0 0 0 0 0 0 0 0 0 0 0 0 0 0 0 0 0 0 0 0 0 0 0 0 0
-0 -0 0 0 -0 -0 -0 0 0 -0 0 -0 0 0 0 0 0 0 0 0 0 0 0 0 0 0 0 0 0 0 0 0 0 0 0 0 0 0 0 0 0 0 0
-0 -0 0 0 -0 -0 -0 0 0 0 0 -0 0 -0 0 0 0 0 0 0 0 0 0 0 0 0 0 0 0 0 1 0 0 0 0 0 0 0 0 0 0 0 0
-0 -0 -0 0 -0 -0 0 0 0 0 0 0 0 0 0 0 0 0 0 0 0 0 0 0 0 0 0 0 0 1 1 0 0 0 0 0 0 0 0 0 0 0 0
0 -0 -0 -0 -0 0 0 0 0 0 0 0 0 0 0 0 0 0 0 0 0 0 0 0 0 0 0 0 0 1 1 0 0 0 0 0 0 0 0 0 0 0 0
-0 -0 -0 -0 -0 0 0 0 0 0 0 0 0 0 0 0 0 0 1 1 1 1 1 0 0 0 0 0 1 1 1 0 0 0 0 0 0 0 0 0 0 0 0
-0 -0 -0 -0 -0 0 0 0 0 0 0 0 0 0 1 0 0 1 1 1 1 1 1 1 1 0 0 0 1 1 1 0 0 0 0 1 0 0 0 0 0 0 0
-0 -0 -0 -0 -0 -0 0 0 0 0 0 0 0 0 0 0 0 0 1 1 1 1 1 1 1 1 1 1 1 1 1 0 0 0 0 1 1 0 0 0 0 0 0
-0 -0 -0 -0 -0 -0 -0 -0 0 -0 0 0 0 0 0 0 0 0 0 0 0 0 1 1 1 1 1 1 1 1 0 0 0 0 0 1 1 1 0 1 1 1 1
0 -0 -0 -0 -0 -0 -0 -0 -0 -0 0 0 0 0 0 0 0 0 0 0 0 0 0 1 1 1 0 0 0 0 0 0 0 0 0 0 0 0 1 1 0 1 1
0 -0 -0 -0 -0 -0 -0 -0 -0 0 0 0 0 0 0 0 0 0 0 0 0 0 0 0 0 0 0 0 0 0 0 0 0 0 0 0 0 0 0 0 1 0 0
0 -0 -0 -0 -0 -0 -0 -0 -0 -0 0 0 -0 0 -0 0 0 0 0 0 0 0 0 0 0 0 0 0 0 0 0 0 0 0 0 0 -0 0 0 0 0 0 0
0 0 -0 0 -0 -0 -0 -0 -0 0 0 0 0 0 0 0 0 0 0 0 0 0 0 0 0 0 0 0 0 0 0 0 0 0 0 -0 0 0 0 0 -0 0 1
-0 -0 0 0 -0 0 -0 -0 -0 -0 0 0 0 0 0 0 0 0 0 0 0 0 0 0 0 0 0 0 0 0 0 0 0 -0 0 0 0 0 0 0 -0 -0 0
0 -0 0 0 0 -0 -0 -0 -0 0 0 -0 -0 0 0 0 0 0 0 0 0 0 0 0 0 0 0 0 0 0 0 0 0 0 -0 0 0 0 -0 -0 -0 -0 -0
0 -0 0 -0 -0 -0 0 0 -0 -0 0 -0 -0 -0 0 0 0 0 0 0 0 0 0 0 0 0 0 0 0 -0 -0 -0 0 -0 -0 -0 -0 0 -0 0 0 0 -0
-0 -0 0 -0 -0 0 0 0 0 -0 -0 -0 -0 -0 -0 -0 0 0 0 0 0 0 0 0 0 0 0 0 -0 -0 -0 -0 -0 -0 0 -0 0 -0 -0 0 0 0 0
-0 -0 0 0 0 -0 -0 0 0 0 -0 -0 -0 -0 -0 0 -0 0 0 0 0 0 0 0 0 0 0 0 0 -0 -0 0 0 0 -0 -0 0 -0 0 0 0 0 -0
-0 0 0 0 0 -0 -0 0 0 0 0 0 0 0 -0 -0 -0 -0 0 0 0 0 0 0 0 0 0 -0 0 0 0 0 0 0 -0 -0 0 -0 -0 -0 -0 0 -0
0 -0 0 0 0 0 -0 -0 -0 0 0 0 -0 -0 -0 0 -0 -0 -0 0 0 0 0 0 0 0 0 0 0 0 -0 0 0 0 -0 -0 0 -0 0 -0 0 0 0
0 0 0 0 0 0 -0 -0 -0 -0 0 0 -0 -0 -0 0 0 0 -0 0 0 0 0 0 0 0 0 0 0 0 0 -0 -0 0 0 0 0 0 0 0 0 0 0
0 0 0 0 0 0 -0 -0 -0 -0 -0 -0 -0 -0 -0 0 0 -0 -0 0 0 0 0 0 0 -0 0 -0 -0 0 0 0 0 0 0 0 0 0 0 -0 0 0 0
Wind_Speed_500mb
33 30 33 43 43 45 54 50 47 40 32 42 41 43 45 43 44 43 45 42 42 44 44 43 40 39 36 34 34 35 35 31 30 34 34 33 32 33 26 27 28 29 28
37 31 38 50 48 51 53 54 50 47 40 37 39 40 41 41 44 44 42 47 45 45 40 40 40 43 42 45 45 42 37 31 30 30 29 30 30 28 26 26 26 27 25
41 44 51 51 53 54 52 52 53 48 39 38 39 38 42 43 44 44 46 40 40 41 39 41 43 42 42 39 36 33 33 31 29 25 25 24 26 25 26 26 25 24 23
46 48 50 47 48 46 42 41 43 43 42 33 36 37 38 41 41 39 38 35 34 36 37 42 44 40 39 36 34 34 28 25 21 19 18 22 25 23 23 23 23 21 20
49 51 46 43 39 39 38 36 36 39 39 31 36 37 38 38 37 34 34 35 34 35 36 37 36 36 37 33 32 29 26 20 15 12 12 15 19 21 21 19 19 19 18
51 47 40 40 39 39 36 36 37 39 37 35 36 33 33 36 34 32 30 29 31 33 35 35 37 39 37 33 29 22 23 19 8 7 11 14 15 17 15 13 12 12 11
49 46 42 40 39 39 38 38 36 37 39 37 35 34 36 32 31 31 30 31 31 32 33 36 39 36 31 26 21 20 16 19 13 8 9 13 15 16 15 14 12 11 9
46 44 41 40 38 38 38 35 36 34 36 37 37 34 33 32 33 32 33 33 33 32 33 34 35 36 37 31 23 16 19 23 20 10 10 13 17 17 17 15 14 12 10
40 42 42 41 38 36 36 34 32 36 37 36 35 33 35 34 35 36 35 34 34 33 34 34 33 34 31 28 20 7 10 21 22 15 13 14 18 18 16 15 13 11 9
37 36 37 36 37 36 35 33 33 33 35 35 34 33 36 39 36 33 36 39 38 37 37 45 44 39 34 31 23 11 4 19 24 17 14 16 16 14 14 13 12 11 9
36 34 34 34 34 37 36 35 36 33 33 35 35 36 37 33 30 32 34 34 35 33 32 33 32 30 28 27 19 5 7 18 22 18 15 15 14 14 12 11 12 13 14
45 46 40 37 37 39 37 35 38 36 33 36 31 32 33 35 36 30 23 18 19 19 18 17 15 14 17 17 11 6 9 22 18 14 16 16 17 18 17 18 20 20 20
43 45 38 41 39 40 40 40 39 36 32 32 26 32 34 35 33 28 21 21 23 25 18 22 24 16 9 16 17 12 21 23 19 20 21 23 23 22 21 22 24 25 25
36 37 38 32 39 41 39 32 33 34 35 32 29 32 30 26 22 17 19 27 22 20 21 24 28 31 25 15 15 15 26 24 18 24 32 35 34 29 26 24 24 28 30
34 43 40 39 36 41 40 38 38 34 28 29 27 28 20 23 17 12 15 21 22 21 14 21 24 18 17 14 15 13 8 12 15 21 27 35 38 41 38 29 25 27 30
40 43 43 37 31 29 39 38 38 30 28 20 10 23 23 29 28 20 23 16 15 13 16 10 8 11 11 9 12 6 5 5 8 7 14 22 26 33 34 37 33 27 29
33 36 38 37 32 30 36 33 34 29 27 13 14 35 23 25 24 12 14 20 19 19 14 9 4 6 14 13 13 15 16 4 11 18 22 15 20 11 8 12 20 31 33
39 42 44 45 41 42 37 33 36 32 19 12 10 24 22 31 12 11 10 11 7 14 8 15 8 8 8 14 10 14 14 5 11 6 11 4 7 13 18 3 15 21 28
40 42 34 50 43 45 35 31 39 27 22 13 17 12 28 24 13 13 14 7 13 17 12 11 11 10 5 3 4 5 13 5 6 6 6 11 4 11 18 17 12 17 27
41 39 35 44 45 51 39 38 34 36 22 22 17 15 15 9 27 16 17 11 14 16 10 7 8 11 14 5 7 15 2 4 4 6 11 17 21 19 26 22 22 20 27
42 43 36 39 56 49 44 35 38 39 31 28 19 11 10 13 20 24 14 14 14 16 10 9 10 13 12 9 14 17 24 23 17 21 9 8 7 4 22 19 19 24 31
44 41 47 39 56 44 44 39 44 33 31 28 21 16 13 17 13 20 12 17 10 11 12 10 12 14 13 13 13 8 17 7 16 27 21 23 22 18 17 9 9 22 36
48 46 49 40 37 36 47 38 38 34 39 38 31 20 17 10 13 19 14 16 8 14 11 11 16 10 9 5 19 15 6 13 19 7 14 15 2 17 12 12 15 25 33
47 43 46 38 37 46 48 42 42 35 38 35 27 16 23 14 18 15 15 13 9 14 10 9 16 14 6 8 18 24 28 20 7 4 11 11 4 4 19 7 20 20 25
44 47 45 40 35 54 52 53 36 35 35 28 31 27 28 22 18 14 13 14 14 13 7 7 14 16 15 15 19 31 18 13 9 3 6 10 11 9 3 3 14 19 22
53 49 46 43 37 55 54 51 39 38 36 30 32 33 29 28 27 22 17 12 16 14 8 5 11 7 10 15 15 6 13 10 9 8 20 17 19 11 16 26 27 24 18
Wind_Direction_500mb
133 128 131 139 134 117 113 119 122 118 108 111 112 114 117 117 114 114 120 121 118 119 117 119 121 121 116 114 112 111 110 112 118 117 116 112 110 109 120 119 119 119 124
132 121 128 134 130 123 114 112 114 104 102 107 114 116 116 117 116 114 117 119 122 118 122 125 128 123 120 112 109 110 104 104 107 113 115 113 108 116 117 119 119 119 121
133 124 124 129 126 124 119 117 110 109 115 118 120 122 123 124 121 119 119 121 118 118 120 124 129 127 122 120 113 107 103 97 97 109 117 119 117 119 119 117 114 115 120
134 130 128 130 131 127 125 120 122 112 100 115 121 122 124 123 119 119 118 116 117 120 122 125 125 121 123 117 114 104 108 92 87 107 120 118 118 115 116 120 121 121 122
135 133 128 131 134 129 132 132 127 123 120 120 120 123 122 120 117 116 113 111 110 116 124 129 128 126 124 120 117 106 98 82 71 78 117 118 119 126 124 118 122 124 124
138 133 130 130 131 131 130 130 129 127 129 130 123 119 121 118 114 114 114 113 110 114 124 130 131 127 117 113 115 106 76 63 53 105 112 112 116 112 120 126 131 133 141
143 137 132 130 130 132 130 131 133 134 133 130 126 120 120 118 113 114 113 110 109 114 121 131 135 129 120 117 124 105 86 60 57 83 101 107 106 106 109 113 113 118 126
145 142 137 132 130 133 127 127 130 133 133 130 124 121 129 121 114 111 106 104 106 110 118 130 141 130 121 119 117 97 70 58 51 63 93 98 101 101 101 102 102 105 108
151 146 143 140 133 128 129 129 132 136 139 128 120 116 118 113 108 104 101 101 102 107 110 117 134 142 131 127 131 120 53 46 38 42 69 89 91 91 95 95 95 94 89
147 147 144 141 137 132 130 132 134 135 138 130 124 119 117 110 107 105 106 101 96 100 109 111 114 123 128 136 147 143 97 29 33 41 60 71 76 83 86 91 94 92 85
147 150 146 142 138 139 134 131 131 129 131 130 120 114 117 113 109 109 110 103 99 95 99 110 119 124 128 133 146 129 24 30 39 44 54 64 75 80 80 73 66 58 48
138 136 132 137 139 143 141 134 129 119 113 119 110 118 125 123 116 110 104 101 96 86 89 108 118 120 125 124 128 136 64 56 54 59 65 74 76 72 65 59 52 47 39
145 145 129 126 135 143 142 132 123 122 117 118 125 123 132 129 119 113 107 108 97 90 87 99 84 84 111 130 141 119 74 70 72 76 82 82 79 73 67 61 55 50 39
165 149 142 128 137 136 142 140 130 117 127 137 134 130 140 140 128 101 126 108 98 94 84 90 80 74 78 117 162 108 88 82 88 94 88 77 68 59 50 48 46 44 38
154 155 146 144 139 143 141 139 137 130 149 147 143 135 139 138 122 120 128 116 113 92 106 96 92 99 108 116 104 95 123 100 61 75 84 77 67 57 52 45 42 41 35
154 149 145 155 164 161 159 139 138 150 154 146 152 168 136 160 129 117 125 111 105 103 125 112 103 82 154 129 152 162 109 112 40 9 42 48 53 47 41 41 40 36 32
151 160 167 159 158 165 156 146 156 152 160 156 151 145 156 142 128 137 104 92 110 139 147 143 155 199 108 114 102 165 225 265 50 15 42 28 46 7 349 32 33 20 23
151 157 167 177 158 159 160 156 156 163 166 182 154 155 127 133 117 148 136 122 55 75 134 77 171 183 79 101 98 109 152 204 237 346 10 37 36 9 28 23 23 9 12
147 154 161 178 171 166 171 175 169 174 184 184 167 165 181 163 157 149 167 159 114 115 109 89 88 98 131 157 30 346 317 315 265 66 26 19 34 9 24 18 6 3 19
155 153 143 164 163 172 176 174 162 171 170 169 153 143 140 144 141 171 157 125 139 157 139 141 150 123 106 82 267 232 359 28 77 256 67 42 21 19 29 15 23 23 29
168 165 161 159 163 163 167 178 179 183 177 173 162 133 156 127 175 168 152 122 137 161 129 132 138 124 108 98 125 133 110 85 41 58 70 16 358 344 2 356 16 31 41
180 177 168 171 175 177 176 171 175 184 187 192 192 185 186 171 174 168 149 160 155 138 144 150 111 83 84 95 92 126 164 88 58 21 44 42 34 291 310 9 14 40 38
185 186 177 176 185 180 186 187 180 180 180 180 187 203 203 190 177 189 180 165 148 149 122 103 64 52 101 106 74 60 37 79 94 70 42 23 118 36 11 13 293 14 32
192 194 184 182 190 191 184 187 189 185 179 189 190 201 200 202 219 222 224 202 210 172 117 106 58 34 109 118 74 48 56 75 165 107 76 56 249 284 83 360 295 28 16
202 198 196 196 196 191 187 188 196 208 202 209 206 200 193 199 194 212 222 227 209 172 154 119 70 52 71 82 89 65 72 46 33 2 79 48 24 109 58 142 83 40 29
202 204 204 205 202 196 196 197 199 203 206 215 197 203 204 208 210 208 215 240 220 199 180 191 95 97 67 50 43 276 173 26 24 11 70 63 46 152 72 123 63 39 37
Wind_Speed_850mb
33 30 33 43 43 45 54 50 47 40 32 42 41 43 45 43 44 43 45 42 42 44 44 43 40 39 36 34 34 35 35 31 30 34 34 33 32 33 26 27 28 29 28
37 31 38 50 48 51 53 54 50 47 40 37 39 40 41 41 44 44 42 47 45 45 40 40 40 43 42 45 45 42 37 31 30 30 29 30 30 28 26 26 26 27 25
41 44 51 51 53 54 52 52 53 48 39 38 39 38 42 43 44 44 46 40 40 41 39 41 43 42 42 39 36 33 33 31 29 25 25 24 26 25 26 26 25 24 23
46 48 50 47 48 46 42 41 43 43 42 33 36 37 38 41 41 39 38 35 34 36 37 42 44 40 39 36 34 34 28 25 21 19 18 22 25 23 23 23 23 21 20
49 51 46 43 39 39 38 36 36 39 39 31 36 37 38 38 37 34 34 35 34 35 36 37 36 36 37 33 32 29 26 20 15 12 12 15 19 21 21 19 19 19 18
51 47 40 40 39 39 36 36 37 39 37 35 36 33 33 36 34 32 30 29 31 33 35 35 37 39 37 33 29 22 23 19 8 7 11 14 15 17 15 13 12 12 11
49 46 42 40 39 39 38 38 36 37 39 37 35 34 36 32 31 31 30 31 31 32 33 36 39 36 31 26 21 20 16 19 13 8 9 13 15 16 15 14 12 11 9
46 44 41 40 38 38 38 35 36 34 36 37 37 34 33 32 33 32 33 33 33 32 33 34 35 36 37 31 23 16 19 23 20 10 10 13 17 17 17 15 14 12 10
40 42 42 41 38 36 36 34 32 36 37 36 35 33 35 34 35 36 35 34 34 33 34 34 33 34 31 28 20 7 10 21 22 15 13 14 18 18 16 15 13 11 9
37 36 37 36 37 36 35 33 33 33 35 35 34 33 36 39 36 33 36 39 38 37 37 45 44 39 34 31 23 11 4 19 24 17 14 16 16 14 14 13 12 11 9
36 34 34 34 34 37 36 35 36 33 33 35 35 36 37 33 30 32 34 34 35 33 32 33 32 30 28 27 19 5 7 18 22 18 15 15 14 14 12 11 12 13 14
45 46 40 37 37 39 37 35 38 36 33 36 31 32 33 35 36 30 23 18 19 19 18 17 15 14 17 17 11 6 9 22 18 14 16 16 17 18 17 18 20 20 20
43 45 38 41 39 40 40 40 39 36 32 32 26 32 34 35 33 28 21 21 23 25 18 22 24 16 9 16 17 12 21 23 19 20 21 23 23 22 21 22 24 25 25
36 37 38 32 39 41 39 32 33 34 35 32 29 32 30 26 22 17 19 27 22 20 21 24 28 31 25 15 15 15 26 24 18 24 32 35 34 29 26 24 24 28 30
34 43 40 39 36 41 40 38 38 34 28 29 27 28 20 23 17 12 15 21 22 21 14 21 24 18 17 14 15 13 8 12 15 21 27 35 38 41 38 29 25 27 30
40 43 43 37 31 29 39 38 38 30 28 20 10 23 23 29 28 20 23 16 15 13 16 10 8 11 11 9 12 6 5 5 8 7 14 22 26 33 34 37 33 27 29
33 36 38 37 32 30 36 33 34 29 27 13 14 35 23 25 24 12 14 20 19 19 14 9 4 6 14 13 13 15 16 4 11 18 22 15 20 11 8 12 20 31 33
39 42 44 45 41 42 37 33 36 32 19 12 10 24 22 31 12 11 10 11 7 14 8 15 8 8 8 14 10 14 14 5 11 6 11 4 7 13 18 3 15 21 28
40 42 34 50 43 45 35 31 39 27 22 13 17 12 28 24 13 13 14 7 13 17 12 11 11 10 5 3 4 5 13 5 6 6 6 11 4 11 18 17 12 17 27
41 39 35 44 45 51 39 38 34 36 22 22 17 15 15 9 27 16 17 11 14 16 10 7 8 11 14 5 7 15 2 4 4 6 11 17 21 19 26 22 22 20 27
42 43 36 39 56 49 44 35 38 39 31 28 19 11 10 13 20 24 14 14 14 16 10 9 10 13 12 9 14 17 24 23 17 21 9 8 7 4 22 19 19 24 31
44 41 47 39 56 44 44 39 44 33 31 28 21 16 13 17 13 20 12 17 10 11 12 10 12 14 13 13 13 8 17 7 16 27 21 23 22 18 17 9 9 22 36
48 46 49 40 37 36 47 38 38 34 39 38 31 20 17 10 13 19 14 16 8 14 11 11 16 10 9 5 19 15 6 13 19 7 14 15 2 17 12 12 15 25 33
47 43 46 38 37 46 48 42 42 35 38 35 27 16 23 14 18 15 15 13 9 14 10 9 16 14 6 8 18 24 28 20 7 4 11 11 4 4 19 7 20 20 25
44 47 45 40 35 54 52 53 36 35 35 28 31 27 28 22 18 14 13 14 14 13 7 7 14 16 15 15 19 31 18 13 9 3 6 10 11 9 3 3 14 19 22
53 49 46 43 37 55 54 51 39 38 36 30 32 33 29 28 27 22 17 12 16 14 8 5 11 7 10 15 15 6 13 10 9 8 20 17 19 11 16 26 27 24 18
Wind_Direction_850mb
133 128 131 139 134 117 113 119 122 118 108 111 112 114 117 117 114 114 120 121 118 119 117 119 121 121 116 114 112 111 110 112 118 117 116 112 110 109 120 119 119 119 124
132 121 128 134 130 123 114 112 114 104 102 107 114 116 116 117 116 114 117 119 122 118 122 125 128 123 120 112 109 110 104 104 107 113 115 113 108 116 117 119 119 119 121
133 124 124 129 126 124 119 117 110 109 115 118 120 122 123 124 121 119 119 121 118 118 120 124 129 127 122 120 113 107 103 97 97 109 117 119 117 119 119 117 114 115 120
134 130 128 130 131 127 125 120 122 112 100 115 121 122 124 123 119 119 118 116 117 120 122 125 125 121 123 117 114 104 108 92 87 107 120 118 118 115 116 120 121 121 122
135 133 128 131 134 129 132 132 127 123 120 120 120 123 122 120 117 116 113 111 110 116 124 129 128 126 124 120 117 106 98 82 71 78 117 118 119 126 124 118 122 124 124
138 133 130 130 131 131 130 130 129 127 129 130 123 119 121 118 114 114 114 113 110 114 124 130 131 127 117 113 115 106 76 63 53 105 112 112 116 112 120 126 131 133 141
143 137 132 130 130 132 130 131 133 134 133 130 126 120 120 118 113 114 113 110 109 114 121 131 135 129 120 117 124 105 86 60 57 83 101 107 106 106 109 113 113 118 126
145 142 137 132 130 133 127 127 130 133 133 130 124 121 129 121 114 111 106 104 106 110 118 130 141 130 121 119 117 97 70 58 51 63 93 98 101 101 101 102 102 105 108
151 146 143 140 133 128 129 129 132 136 139 128 120 116 118 113 108 104 101 101 102 107 110 117 134 142 131 127 131 120 53 46 38 42 69 89 91 91 95 95 95 94 89
147 147 144 141 137 132 130 132 134 135 138 130 124 119 117 110 107 105 106 101 96 100 109 111 114 123 128 136 147 143 97 29 33 41 60 71 76 83 86 91 94 92 85
147 150 146 142 138 139 134 131 131 129 131 130 120 114 117 113 109 109 110 103 99 95 99 110 119 124 128 133 146 129 24 30 39 44 54 64 75 80 80 73 66 58 48
138 136 132 137 139 143 141 134 129 119 113 119 110 118 125 123 116 110 104 101 96 86 89 108 118 120 125 124 128 136 64 56 54 59 65 74 76 72 65 59 52 47 39
145 145 129 126 135 143 142 132 123 122 117 118 125 123 132 129 119 113 107 108 97 90 87 99 84 84 111 130 141 119 74 70 72 76 82 82 79 73 67 61 55 50 39
165 149 142 128 137 136 142 140 130 117 127 137 134 130 140 140 128 101 126 108 98 94 84 90 80 74 78 117 162 108 88 82 88 94 88 77 68 59 50 48 46 44 38
154 155 146 144 139 143 141 139 137 130 149 147 143 135 139 138 122 120 128 116 113 92 106 96 92 99 108 116 104 95 123 100 61 75 84 77 67 57 52 45 42 41 35
154 149 145 155 164 161 159 139 138 150 154 146 152 168 136 160 129 117 125 111 105 103 125 112 103 82 154 129 152 162 109 112 40 9 42 48 53 47 41 41 40 36 32
151 160 167 159 158 165 156 146 156 152 160 156 151 145 156 142 128 137 104 92 110 139 147 143 155 199 108 114 102 165 225 265 50 15 42 28 46 7 349 32 33 20 23
151 157 167 177 158 159 160 156 156 163 166 182 154 155 127 133 117 148 136 122 55 75 134 77 171 183 79 101 98 109 152 204 237 346 10 37 36 9 28 23 23 9 12
147 154 161 178 171 166 171 175 169 174 184 184 167 165 181 163 157 149 167 159 114 115 109 89 88 98 131 157 30 346 317 315 265 66 26 19 34 9 24 18 6 3 19
155 153 143 164 163 172 176 174 162 171 170 169 153 143 140 144 141 171 157 125 139 157 139 141 150 123 106 82 267 232 359 28 77 256 67 42 21 19 29 15 23 23 29
168 165 161 159 163 163 167 178 179 183 177 173 162 133 156 127 175 168 152 122 137 161 129 132 138 124 108 98 125 133 110 85 41 58 70 16 358 344 2 356 16 31 41
180 177 168 171 175 177 176 171 175 184 187 192 192 185 186 171 174 168 149 160 155 138 144 150 111 83 84 95 92 126 164 88 58 21 44 42 34 291 310 9 14 40 38
185 186 177 176 185 180 186 187 180 180 180 180 187 203 203 190 177 189 180 165 148 149 122 103 64 52 101 106 74 60 37 79 94 70 42 23 118 36 11 13 293 14 32
192 194 184 182 190 191 184 187 189 185 179 189 190 201 200 202 219 222 224 202 210 172 117 106 58 34 109 118 74 48 56 75 165 107 76 56 249 284 83 360 295 28 16
202 198 196 196 196 191 187 188 196 208 202 209 206 200 193 199 194 212 222 227 209 172 154 119 70 52 71 82 89 65 72 46 33 2 79 48 24 109 58 142 83 40 29
202 204 204 205 202 196 196 197 199 203 206 215 197 203 204 208 210 208 215 240 220 199 180 191 95 97 67 50 43 276 173 26 24 11 70 63 46 152 72 123 63 39 37